Volver al catálogo

STARLINK-36272

ActivoComunicacionesSSO
NORAD 68215·PAYLOAD·🇺🇸 United States

Lanzado Mar 17, 2026 desde Vandenberg Space Force Base

Loading…

Próximos Pases (próximas 24 horas)

TLE

ActualizadoSource: CelesTrak SupGP

Época: Sep 14, 2026, 21:39 UTC

1 68215C 26053J   26257.90256944  .00008339  00000+0  25897-3 0  2572
2 68215  97.2846 131.7262 0001822  91.6533 271.5578 15.33421149    11

Sigue STARLINK-36272 en tiempo real con AllMySat

Download on the App Store